Date,TemperatureHighF,TemperatureAvgF,TemperatureLowF,DewpointHighF,DewpointAvgF,DewpointLowF,HumidityHigh,HumidityAvg,HumidityLow,PressureMaxIn,PressureMinIn,WindSpeedMaxMPH,WindSpeedAvgMPH,GustSpeedMaxMPH,PrecipitationSumIn
2013-1-1,40,37,28,31,28,15,79,68,58,30.05,29.86,13,3,14,0.01
2013-1-2,37,29,24,19,16,14,69,60,47,30.21,30.02,18,3,18,0.00
2013-1-3,37,29,22,21,18,17,83,63,44,30.22,30.10,13,1,13,0.00
2013-1-4,40,34,25,25,23,20,82,63,53,30.13,30.00,17,3,17,0.00
2013-1-5,47,35,29,26,23,20,81,62,42,30.34,30.06,16,3,18,0.00
2013-1-6,51,39,31,35,30,25,94,71,45,30.25,30.00,11,1,11,0.01
2013-1-7,52,39,26,33,28,23,88,65,39,30.42,30.08,16,2,16,0.00
2013-1-8,52,35,24,35,28,22,94,79,50,30.44,30.36,14,1,14,0.00
2013-1-9,49,40,28,40,34,26,94,80,64,30.41,30.16,13,1,13,0.00
2013-1-10,55,43,33,34,29,27,80,58,36,30.56,30.28,15,2,15,0.00
2013-1-11,47,40,32,44,35,28,97,85,70,30.55,30.10,8,0,8,0.49
2013-1-12,49,45,43,46,44,42,98,95,90,30.19,30.09,7,1,7,0.00
2013-1-13,49,46,43,49,45,42,99,98,97,30.17,30.01,6,1,7,0.01
2013-1-14,56,50,39,53,45,34,99,85,57,30.31,29.92,14,2,14,0.04
2013-1-15,40,38,35,37,33,29,95,83,70,30.37,30.22,11,1,11,0.11
2013-1-16,37,34,33,36,33,31,97,95,90,30.22,29.82,13,1,13,0.50
2013-1-17,48,40,36,35,32,28,94,75,56,30.12,29.94,14,2,15,0.00
2013-1-18,37,31,26,29,16,7,80,55,31,30.50,30.01,21,4,21,0.00
2013-1-19,53,39,26,31,24,14,77,55,39,30.48,29.94,19,4,21,0.00
2013-1-20,57,44,31,33,26,14,70,50,24,30.07,29.74,25,5,26,0.00
2013-1-21,32,28,22,24,15,11,83,57,44,30.12,29.88,22,2,22,0.00
2013-1-22,26,20,13,12,2,-3,56,45,31,30.26,29.88,28,6,28,0.00
2013-1-23,23,15,10,7,2,-4,85,57,38,30.30,30.20,17,3,17,0.00
2013-1-24,28,18,9,10,4,-2,87,59,27,30.46,30.14,24,4,26,0.00
2013-1-25,24,17,12,16,6,-1,88,63,44,30.47,30.09,14,2,15,0.00
2013-1-26,32,21,9,15,10,6,91,65,40,30.41,30.08,16,3,19,0.03
2013-1-27,39,25,13,17,13,8,83,62,38,30.57,30.41,15,2,15,0.00
2013-1-28,35,30,20,34,26,15,95,88,75,30.52,30.04,10,1,10,0.10
2013-1-29,52,43,34,46,40,32,97,89,75,30.16,30.03,8,0,8,0.00
2013-1-30,67,54,40,60,50,39,98,89,76,30.08,29.35,27,3,27,0.06
2013-1-31,62,45,29,60,32,13,95,62,35,29.85,29.08,33,8,33,0.79
2013-2-1,34,29,23,17,12,7,60,49,37,30.28,29.84,28,5,28,0.00
2013-2-2,33,24,17,22,10,6,90,57,36,30.33,30.06,13,2,13,0.00
2013-2-3,35,27,22,24,22,18,92,81,61,30.06,29.82,11,1,11,0.02
2013-2-4,32,27,21,24,14,10,82,59,42,30.03,29.85,19,4,19,0.00
2013-2-5,33,30,26,30,27,21,93,87,82,29.99,29.90,6,0,6,0.01
2013-2-6,43,33,24,29,24,16,95,72,46,30.37,29.94,20,2,20,0.01
2013-2-7,35,28,20,25,18,15,86,66,47,30.52,30.32,10,1,10,0.00
2013-2-8,38,34,30,33,31,25,96,90,73,30.32,29.68,17,3,17,0.15
2013-2-9,37,29,20,31,20,8,97,69,45,30.38,29.79,29,6,29,0.26
2013-2-10,40,27,13,23,14,8,83,60,32,30.51,30.34,10,1,10,0.12
2013-2-11,43,36,30,42,33,22,98,92,72,30.34,29.67,10,0,10,0.24
2013-2-12,50,41,29,39,28,24,97,63,43,30.00,29.77,20,4,24,0.00
2013-2-13,47,35,24,32,27,21,94,74,46,29.99,29.70,7,0,7,0.00
2013-2-14,52,38,30,37,31,27,97,79,41,30.03,29.73,10,1,10,0.10
2013-2-15,59,42,29,37,33,27,96,72,40,30.04,29.92,14,1,14,0.00
2013-2-16,43,36,30,35,27,14,95,72,50,30.00,29.77,20,3,20,0.05
2013-2-17,34,28,20,14,8,2,51,42,31,30.08,29.73,34,8,34,0.00
2013-2-18,40,27,18,18,8,2,63,46,29,30.30,30.07,23,5,23,0.00
2013-2-19,48,37,23,43,30,16,94,78,50,30.22,29.71,20,3,20,0.16
2013-2-20,37,31,25,29,15,11,75,52,41,30.04,29.78,24,7,25,0.00
2013-2-21,40,30,24,18,15,12,68,55,40,30.31,30.02,24,6,24,0.01
2013-2-22,38,31,22,30,22,15,82,71,55,30.42,30.27,10,1,10,0.00
2013-2-23,46,39,34,44,38,29,97,94,81,30.28,29.82,16,1,16,0.12
2013-2-24,50,39,32,41,32,22,97,78,55,30.03,29.78,22,4,23,0.02
2013-2-25,47,37,27,31,27,22,86,68,51,30.25,30.03,13,2,15,0.00
2013-2-26,45,36,25,36,30,23,94,81,61,30.29,29.85,30,3,30,0.07
2013-2-27,54,44,38,48,41,36,97,88,67,29.87,29.52,35,4,35,0.18
2013-2-28,52,43,36,39,35,29,94,74,49,29.66,29.58,12,2,14,0.00
2013-3-1,50,40,34,33,30,26,88,68,46,29.82,29.64,18,5,18,0.00
2013-3-2,42,36,30,27,24,22,72,63,52,29.83,29.73,16,4,16,0.00
2013-3-3,41,33,28,22,20,18,70,60,46,29.82,29.72,22,5,22,0.00
2013-3-4,46,35,28,24,20,17,67,55,40,29.96,29.81,24,6,25,0.00
2013-3-5,53,40,31,29,26,22,82,58,37,30.05,29.96,19,2,19,0.00
2013-3-6,43,38,31,37,33,27,90,80,67,29.98,29.81,35,6,35,0.02
2013-3-7,44,38,33,35,31,26,92,75,59,30.11,29.94,23,5,23,0.03
2013-3-8,42,35,30,36,31,28,95,87,70,30.22,30.04,13,4,13,0.29
2013-3-9,65,45,30,29,23,13,78,49,14,30.33,30.20,12,2,12,0.00
2013-3-10,57,40,26,37,31,22,91,71,41,30.40,30.28,15,2,15,0.00
2013-3-11,61,46,33,48,40,31,93,82,50,30.34,30.09,14,2,14,0.00
2013-3-12,58,53,45,57,50,39,97,89,76,30.09,29.68,21,5,21,0.63
2013-3-13,53,43,35,39,31,26,86,64,37,29.93,29.83,18,3,20,0.00
2013-3-14,44,36,30,26,16,11,67,45,29,30.01,29.89,29,6,29,0.00
2013-3-15,51,40,28,33,22,12,60,49,41,30.03,29.74,16,3,16,0.00
2013-3-16,45,36,33,33,29,23,94,77,54,29.94,29.80,12,1,12,0.06
2013-3-17,44,34,27,32,24,19,95,68,41,30.32,29.93,15,2,15,0.03
2013-3-18,38,32,24,34,25,14,94,76,54,30.41,29.97,18,2,18,0.13
2013-3-19,53,41,35,40,33,17,97,78,40,29.97,29.71,24,3,24,0.39
2013-3-20,48,39,31,26,20,18,70,48,31,29.93,29.80,23,4,23,0.00
2013-3-21,41,35,29,29,20,14,87,57,35,29.85,29.66,17,4,18,0.00
2013-3-22,44,35,27,24,20,14,75,56,38,29.93,29.78,26,4,26,0.00
2013-3-23,50,39,31,24,22,20,66,50,34,29.98,29.86,21,5,23,0.00
2013-3-24,50,40,28,27,22,20,75,51,33,29.98,29.71,16,2,16,0.00
2013-3-25,39,37,34,36,32,27,94,84,66,29.72,29.49,14,2,16,0.16
2013-3-26,53,43,34,36,32,27,96,69,38,29.90,29.63,14,2,15,0.01
2013-3-27,54,43,30,33,29,25,85,60,33,30.02,29.90,28,4,28,0.00
2013-3-28,53,44,34,32,30,28,80,59,41,30.14,30.00,17,4,17,0.00
2013-3-29,59,45,31,33,30,27,87,57,33,30.18,30.08,17,2,17,0.00
2013-3-30,62,46,30,34,27,22,90,54,24,30.20,30.09,15,2,15,0.00
2013-3-31,57,45,33,45,36,27,96,72,37,30.15,29.71,21,2,21,0.15
2013-4-1,65,49,38,47,37,14,98,68,35,29.95,29.66,25,4,25,0.00
2013-4-2,47,38,27,20,16,13,72,41,27,30.12,29.95,23,4,25,0.00
2013-4-3,49,39,31,19,15,11,51,38,25,30.33,30.12,21,5,24,0.00
2013-4-4,41,37,26,20,18,13,70,48,39,30.42,30.30,13,3,13,0.00
2013-4-5,41,41,41,19,19,19,42,42,42,30.39,30.39,4,4,5,0.00
2013-4-6,41,41,41,19,19,19,42,42,42,30.39,30.39,4,4,5,0.00
2013-4-7,41,41,41,19,19,19,42,42,42,30.39,30.39,4,4,5,0.00
2013-4-8,41,41,41,19,19,19,42,42,42,30.39,30.39,4,4,5,0.00
2013-4-9,41,41,41,19,19,19,42,42,42,30.39,30.39,4,4,5,0.00
2013-4-10,41,41,41,19,19,19,42,42,42,30.39,30.39,4,4,5,0.00
2013-4-11,41,41,41,19,19,19,42,42,42,30.39,30.39,4,4,5,0.00
2013-4-12,41,41,41,19,19,19,42,42,42,30.39,30.39,4,4,5,0.00
2013-4-13,61,48,41,41,30,19,82,49,41,30.39,29.88,13,3,15,0.01
2013-4-14,64,52,39,42,36,27,96,58,29,30.21,29.99,23,3,23,0.00
2013-4-15,63,52,44,41,36,31,75,54,40,30.38,30.21,16,2,16,0.00
2013-4-16,73,60,47,58,50,41,88,72,54,30.38,30.13,20,3,20,0.00
2013-4-17,77,64,53,57,45,31,93,56,19,30.30,30.11,13,2,13,0.00
2013-4-18,60,54,47,57,48,42,95,80,63,30.34,30.09,18,2,19,0.00
2013-4-19,79,67,58,66,62,55,96,83,59,30.09,29.64,20,4,20,0.15
2013-4-20,60,53,46,55,36,26,93,57,32,30.33,29.73,15,4,22,0.13
2013-4-21,60,46,34,31,25,20,69,45,26,30.63,30.33,16,2,16,0.00
2013-4-22,54,44,31,38,34,29,95,68,41,30.65,30.48,24,3,24,0.00
2013-4-23,50,45,40,44,38,33,90,77,67,30.49,30.14,14,2,14,0.00
2013-4-24,74,55,35,55,46,34,98,75,49,30.14,29.82,16,2,16,0.00
2013-4-25,68,56,45,55,34,27,83,47,22,30.29,29.88,22,4,23,0.00
2013-4-26,69,54,39,39,34,28,87,53,23,30.42,30.28,13,2,14,0.00
2013-4-27,74,56,37,37,34,32,88,50,23,30.45,30.28,13,1,13,0.00
2013-4-28,72,58,40,46,38,29,89,52,30,30.33,30.21,18,2,18,0.00
2013-4-29,55,53,52,53,50,43,96,90,63,30.25,30.17,14,1,14,0.19
2013-4-30,70,57,45,52,44,31,97,67,29,30.35,30.21,14,1,14,0.03
2013-5-1,70,54,37,46,39,32,93,63,28,30.50,30.35,17,2,18,0.00
2013-5-2,76,58,38,48,42,36,97,62,30,30.49,30.34,9,1,9,0.00
2013-5-3,63,63,63,43,43,43,49,49,49,30.34,30.34,0,0,0,0.00
2013-5-4,63,63,63,43,43,43,49,49,49,30.34,30.34,0,0,0,0.00
2013-5-5,63,63,63,43,43,43,49,49,49,30.34,30.34,0,0,0,0.00
2013-5-6,71,62,51,56,47,43,90,58,49,30.34,30.16,12,0,12,0.00
2013-5-7,72,60,50,60,55,48,93,83,64,30.18,30.08,15,1,15,0.00
2013-5-8,71,61,54,65,59,53,98,94,78,30.10,29.95,22,1,22,0.86
2013-5-9,74,61,54,60,56,53,98,84,55,30.01,29.92,11,1,11,0.31
2013-5-10,85,69,52,62,56,51,99,70,34,30.02,29.91,11,1,11,0.05
2013-5-11,76,66,61,67,63,59,98,92,67,29.93,29.72,14,1,14,0.26
2013-5-12,68,60,49,60,44,29,95,60,28,29.99,29.70,20,3,20,0.01
2013-5-13,59,49,39,36,32,25,87,54,31,30.14,29.98,19,2,19,0.01
2013-5-14,65,49,34,39,32,23,97,58,22,30.17,30.05,15,2,15,0.00
2013-5-15,76,61,44,60,50,36,84,68,50,30.09,29.71,15,1,15,0.00
2013-5-16,83,68,56,64,59,54,97,76,48,29.87,29.73,10,1,10,0.00
2013-5-17,78,64,52,57,47,41,90,58,28,30.21,29.86,12,2,14,0.00
2013-5-18,66,58,51,58,53,47,93,82,64,30.32,30.21,10,1,10,0.01
2013-5-19,60,58,55,59,57,54,98,97,93,30.31,30.18,9,1,10,0.14
2013-5-20,81,68,57,69,63,56,99,88,65,30.20,29.98,8,0,8,0.01
2013-5-21,87,74,61,73,67,60,99,81,60,30.00,29.87,14,1,14,0.00
2013-5-22,87,75,66,74,69,65,98,84,59,29.94,29.83,14,1,14,0.00
2013-5-23,81,72,68,72,69,66,96,89,67,29.91,29.76,17,2,17,0.01
2013-5-24,68,56,44,66,53,42,99,91,76,30.01,29.72,18,4,18,0.01
2013-5-25,62,52,43,45,40,35,94,68,41,30.06,29.96,27,6,27,0.00
2013-5-26,72,58,45,42,39,34,82,52,27,30.23,30.03,22,4,22,0.00
2013-5-27,78,59,39,50,42,37,97,60,26,30.28,30.16,14,1,14,0.00
2013-5-28,64,57,49,59,54,47,98,90,71,30.24,30.13,8,0,8,0.00
2013-5-29,92,73,59,71,64,58,99,78,44,30.14,30.03,10,1,10,0.00
2013-5-30,96,81,68,71,67,63,95,67,34,30.16,30.08,10,1,10,0.00
2013-5-31,95,81,66,73,66,58,95,65,32,30.15,30.01,9,1,9,0.00
2013-6-1,94,81,69,71,68,64,91,66,40,30.05,29.91,13,1,13,0.00
2013-6-2,90,80,71,72,69,65,89,70,48,29.94,29.81,15,2,15,0.00
2013-6-3,85,72,64,71,68,62,98,86,56,29.91,29.80,15,1,15,0.00
2013-6-4,80,66,55,62,49,45,91,58,31,30.14,29.91,16,2,16,0.00
2013-6-5,80,64,48,56,51,46,94,65,39,30.23,30.12,13,1,13,0.00
2013-6-6,73,63,53,61,57,52,97,82,48,30.16,30.01,14,1,14,0.00
2013-6-7,64,62,60,64,61,59,98,97,95,30.01,29.61,14,2,17,0.00
2013-6-8,80,68,58,67,63,57,98,83,61,30.08,29.60,16,2,16,0.00
2013-6-9,86,72,57,66,60,56,98,72,42,30.20,30.08,9,1,10,0.00
2013-6-10,70,67,65,70,66,62,99,95,89,30.17,29.81,13,1,13,0.00
2013-6-11,83,75,67,70,67,62,99,78,58,29.82,29.67,15,2,15,0.00
2013-6-12,85,73,63,63,59,56,85,63,38,29.87,29.75,16,2,17,0.00
2013-6-13,75,65,58,69,62,56,96,90,79,29.87,29.43,15,1,16,0.00
2013-6-14,78,61,54,63,56,52,96,84,53,29.93,29.54,19,2,19,0.00
2013-6-15,67,63,54,62,59,53,99,88,82,30.04,29.93,7,1,7,0.00
2013-6-16,67,67,67,61,61,61,82,82,82,30.04,30.04,2,2,3,0.00
2013-6-17,89,72,67,70,64,61,92,78,46,30.04,29.86,17,2,17,0.00
2013-6-18,81,68,63,72,66,62,98,92,70,29.92,29.83,11,0,11,0.00
2013-6-19,82,69,59,63,56,49,97,68,32,30.18,29.89,13,1,15,0.00
2013-6-20,82,69,55,62,57,52,97,68,44,30.29,30.18,10,1,10,0.00
2013-6-21,86,72,55,62,56,52,92,61,39,30.33,30.25,10,1,10,0.00
2013-6-22,87,73,56,67,61,54,96,70,47,30.29,30.13,10,1,10,0.00
2013-6-23,88,75,62,75,68,60,96,80,54,30.22,30.07,19,1,19,0.00
2013-6-24,95,79,70,75,70,62,98,75,46,30.10,29.99,13,1,15,0.00
2013-6-25,94,80,66,74,69,65,95,71,44,30.03,29.85,11,1,11,0.00
2013-6-26,93,80,72,74,69,64,91,71,46,29.89,29.80,13,1,13,0.00
2013-6-27,89,79,71,75,72,69,97,81,58,29.85,29.58,15,1,15,0.50
2013-6-28,89,77,70,73,70,67,97,82,54,29.60,29.49,11,1,11,0.01
2013-6-29,89,77,67,71,68,65,98,76,47,29.72,29.51,11,1,11,0.00
2013-6-30,82,75,70,77,72,69,98,91,77,29.92,29.72,7,0,7,0.11
2013-7-1,77,75,72,75,73,70,98,94,90,30.06,29.91,14,1,14,0.27
2013-7-2,86,76,72,76,73,71,98,90,70,30.20,30.05,14,1,14,0.17
2013-7-3,87,76,70,79,74,70,99,91,71,30.27,30.18,10,1,10,0.12
2013-7-4,91,81,74,77,74,72,98,81,59,30.28,30.18,11,1,12,0.00
2013-7-5,93,83,74,77,74,72,95,76,50,30.24,30.11,11,1,13,0.00
2013-7-6,97,85,74,77,74,72,95,73,48,30.17,30.05,11,1,11,0.00
2013-7-7,98,85,74,77,74,69,94,72,50,30.10,29.96,19,1,19,0.00
2013-7-8,91,79,70,74,70,66,91,74,51,30.08,30.00,8,1,9,0.00
2013-7-9,89,78,69,74,71,67,97,81,57,30.10,30.00,9,0,9,0.06
2013-7-10,90,80,72,79,74,71,98,82,59,30.04,29.83,13,1,14,0.02
2013-7-11,91,80,73,74,72,68,89,77,53,29.94,29.83,8,1,8,0.00
2013-7-12,80,73,69,71,68,64,96,85,68,30.08,29.93,16,1,16,1.13
2013-7-13,85,75,69,79,73,68,99,94,78,30.30,30.08,13,1,15,0.81
2013-7-14,94,82,73,78,75,72,99,82,53,30.37,30.26,9,0,9,0.00
2013-7-15,98,84,71,82,76,70,97,78,50,30.28,30.15,12,1,12,0.00
2013-7-16,98,84,71,79,73,69,97,73,41,30.23,30.15,12,1,12,0.00
2013-7-17,101,85,72,77,73,70,96,72,39,30.22,30.08,1,0,1,0.00
2013-7-18,100,87,74,80,76,72,94,73,47,30.10,29.98,9,1,9,0.00
2013-7-19,99,88,78,81,78,76,94,74,51,30.00,29.83,11,1,11,0.00
2013-7-20,96,85,77,77,74,70,85,71,53,29.86,29.76,13,1,13,0.00
2013-7-21,91,80,72,74,71,68,94,76,52,29.97,29.85,10,1,10,0.00
2013-7-22,89,77,72,78,73,70,98,88,66,29.97,29.81,11,1,11,0.47
2013-7-23,89,78,71,75,73,70,98,85,60,29.81,29.60,16,1,16,0.47
2013-7-24,83,76,65,70,66,56,95,74,56,29.96,29.65,12,2,12,0.00
2013-7-25,70,66,63,61,57,53,86,73,63,30.07,29.94,13,1,13,0.00
2013-7-26,84,73,64,65,62,60,91,70,49,30.07,30.01,9,2,10,0.00
2013-7-27,86,73,62,71,65,61,98,77,50,30.08,29.95,14,1,14,0.00
2013-7-28,83,72,66,73,68,64,97,89,71,30.00,29.89,12,1,12,0.44
2013-7-29,87,74,63,69,64,56,99,75,36,30.14,29.97,10,1,14,0.04
2013-7-30,86,70,57,65,60,56,97,72,42,30.20,30.13,12,1,12,0.00
2013-7-31,86,72,58,68,62,57,97,74,41,30.19,30.05,7,0,7,0.00
2013-8-1,71,68,66,70,66,64,98,94,83,30.05,29.85,10,1,10,1.02
2013-8-2,88,74,63,69,66,63,99,78,46,29.95,29.82,10,1,10,0.00
2013-8-3,75,70,64,70,66,62,96,89,77,29.95,29.89,9,0,9,0.05
2013-8-4,83,70,60,63,60,55,98,73,40,30.02,29.88,15,2,15,0.00
2013-8-5,83,67,53,62,55,49,97,69,35,30.10,30.01,12,1,12,0.00
2013-8-6,84,68,56,64,59,54,97,76,38,30.14,30.05,10,1,10,0.00
2013-8-7,79,71,65,70,66,63,94,85,68,30.15,30.07,13,1,13,0.00
2013-8-8,87,76,69,77,72,68,97,87,65,30.08,30.00,13,1,13,0.08
2013-8-9,86,79,74,77,74,71,94,86,73,30.03,29.83,12,2,12,0.00
2013-8-10,85,76,67,73,68,64,95,77,53,30.07,29.89,10,1,11,0.00
2013-8-11,87,73,59,71,62,58,97,73,44,30.15,30.03,9,1,9,0.00
2013-8-12,88,75,68,71,68,64,96,82,47,30.06,29.95,8,0,8,0.07
2013-8-13,84,73,68,72,69,65,98,89,65,29.95,29.72,10,0,10,0.87
2013-8-14,77,67,56,66,54,50,92,65,44,30.09,29.79,18,4,18,0.00
2013-8-15,83,65,50,61,54,47,98,71,34,30.18,30.09,10,1,11,0.00
2013-8-16,85,68,53,62,56,51,98,70,35,30.23,30.15,8,0,8,0.00
2013-8-17,86,69,54,64,58,53,97,72,39,30.30,30.23,10,0,10,0.00
2013-8-18,78,68,62,66,62,59,95,84,55,30.28,30.15,5,0,5,0.01
2013-8-19,80,69,61,68,64,60,98,83,57,30.17,30.07,7,0,7,0.00
2013-8-20,92,75,61,72,66,60,99,77,44,30.16,30.08,8,0,9,0.00
2013-8-21,92,77,62,72,65,59,98,73,36,30.21,30.08,7,0,7,0.00
2013-8-22,78,72,69,74,71,68,99,95,85,30.09,29.91,11,0,11,1.93
2013-8-23,84,73,64,70,65,56,98,79,41,30.12,29.91,10,1,10,0.00
2013-8-24,85,69,57,62,57,52,94,70,33,30.37,30.12,10,1,10,0.00
2013-8-25,87,68,53,62,57,52,99,73,37,30.43,30.27,9,1,9,0.00
2013-8-26,86,73,62,71,64,58,92,76,53,30.27,29.94,10,1,10,0.01
2013-8-27,93,78,70,73,69,67,96,77,48,29.95,29.87,12,2,12,0.05
2013-8-28,79,72,67,75,71,66,98,95,80,29.92,29.86,3,0,3,0.26
2013-8-29,84,74,68,72,70,66,98,88,65,30.06,29.90,13,0,13,0.00
2013-8-30,86,75,68,74,69,66,95,84,62,30.05,29.89,10,1,10,0.00
2013-8-31,88,77,70,76,72,68,96,85,65,29.90,29.81,7,1,9,0.00
2013-9-1,91,77,71,78,72,69,98,87,64,29.88,29.79,21,0,21,0.01
2013-9-2,81,74,71,75,73,69,98,94,81,29.82,29.73,11,0,11,0.52
2013-9-3,85,74,62,73,67,60,99,81,45,29.92,29.74,12,1,12,0.07
2013-9-4,84,69,57,65,60,56,98,76,44,30.04,29.92,13,1,13,0.00
2013-9-5,82,67,55,64,57,47,98,73,34,30.17,29.97,15,2,15,0.00
2013-9-6,77,60,48,53,48,43,95,70,31,30.28,30.16,13,1,13,0.00
2013-9-7,83,63,46,63,52,45,98,73,34,30.17,29.94,10,1,10,0.00
2013-9-8,86,70,56,68,60,49,96,71,44,30.11,29.86,14,2,14,0.00
2013-9-9,77,63,48,61,54,46,94,76,50,30.25,30.11,10,1,10,0.00
2013-9-10,88,75,64,75,69,61,94,83,64,30.20,30.08,12,1,12,0.00
2013-9-11,94,82,72,80,74,71,98,81,57,30.15,30.00,9,1,9,0.00
2013-9-12,88,76,69,77,72,68,97,86,66,30.02,29.71,23,1,23,0.35
2013-9-13,79,69,58,68,61,50,97,78,51,29.90,29.67,18,2,18,0.06
2013-9-14,68,58,47,51,48,45,93,71,51,30.17,29.90,15,3,15,0.00
2013-9-15,76,58,43,58,50,42,98,77,42,30.25,30.10,9,1,9,0.00
2013-9-16,75,62,56,60,56,50,97,82,53,30.26,30.06,12,1,12,0.01
2013-9-17,70,56,43,50,43,39,93,66,35,30.45,30.26,15,1,15,0.00
2013-9-18,74,56,40,52,46,39,98,74,37,30.38,30.21,8,0,8,0.00
2013-9-19,80,60,45,58,51,44,99,76,39,30.23,30.09,9,0,9,0.00
2013-9-20,82,64,49,64,56,48,98,78,46,30.12,30.00,10,1,10,0.00
2013-9-21,81,66,52,67,60,51,98,83,46,30.03,29.69,19,2,19,0.43
2013-9-22,73,63,52,63,53,43,97,73,41,29.95,29.68,16,3,16,0.26
2013-9-23,70,57,44,48,44,42,92,66,42,30.08,29.95,15,3,15,0.00
2013-9-24,77,56,40,56,47,38,97,75,40,30.09,29.91,12,1,12,0.00
2013-9-25,77,57,43,55,48,42,97,76,40,29.99,29.90,6,0,8,0.00
2013-9-26,76,59,47,61,53,46,97,84,54,30.12,29.96,8,0,8,0.00
2013-9-27,74,61,53,56,54,51,96,80,48,30.29,30.12,8,0,10,0.00
2013-9-28,76,61,51,56,53,48,97,77,42,30.34,30.25,12,1,12,0.00
2013-9-29,76,59,46,58,52,45,98,81,51,30.26,30.09,8,0,9,0.00
2013-9-30,79,59,45,58,51,44,98,79,41,30.11,30.00,7,0,7,0.00
2013-10-1,84,64,50,63,57,49,99,79,46,30.04,29.93,10,1,10,0.00
2013-10-2,87,68,54,65,60,52,99,78,46,30.05,29.95,14,1,14,0.00
2013-10-3,82,67,54,66,59,52,98,79,38,30.15,30.05,6,0,6,0.00
2013-10-4,90,71,58,69,63,56,97,78,47,30.09,29.99,8,0,8,0.00
2013-10-7,79,66,56,72,63,52,98,91,68,30.03,29.77,22,2,22,0.54
2013-10-8,72,56,46,53,49,45,99,79,42,30.34,30.03,12,1,12,0.00
2013-10-9,63,54,44,53,48,43,96,83,64,30.40,30.28,13,1,14,0.00
2013-10-10,60,56,52,57,53,48,94,87,79,30.28,30.06,15,2,15,0.14
2013-10-11,65,61,57,61,58,55,96,89,84,30.09,30.01,18,2,18,0.10
2013-10-12,75,65,58,59,53,44,85,67,46,30.27,30.07,19,2,19,0.00
2013-10-13,71,60,52,55,52,50,92,76,54,30.39,30.26,17,2,17,0.00
2013-10-14,74,56,44,53,49,43,98,79,45,30.38,30.25,8,0,9,0.00
2013-10-15,77,56,44,57,47,39,98,76,29,30.28,30.14,10,0,10,0.00
2013-10-16,71,59,47,60,55,44,95,86,67,30.14,29.93,7,0,7,0.00
2013-10-17,75,65,60,64,62,59,97,88,66,29.94,29.71,10,1,10,0.01
2013-10-18,70,60,46,63,48,43,94,67,43,30.02,29.71,16,3,16,0.00
2013-10-19,64,52,41,55,46,40,97,83,56,30.02,29.79,8,0,8,0.07
2013-10-20,66,53,41,54,42,36,95,69,34,30.10,29.80,14,2,15,0.00
2013-10-21,70,52,38,49,41,37,98,72,34,30.18,30.01,11,1,13,0.00
2013-10-22,69,52,42,53,46,36,98,80,51,30.01,29.80,11,1,12,0.00
2013-10-23,61,46,38,43,38,35,92,74,49,29.85,29.64,15,1,15,0.00
2013-10-24,56,44,36,37,33,29,90,68,39,30.06,29.80,17,2,17,0.00
2013-10-25,57,44,36,36,33,30,91,67,42,30.27,30.06,20,2,20,0.00
2013-10-26,56,43,30,37,32,29,97,69,40,30.26,29.92,20,2,20,0.00
2013-10-27,62,49,37,38,35,32,84,60,38,30.16,29.89,17,2,17,0.00
2013-10-28,66,46,31,39,35,29,96,70,35,30.33,30.15,11,1,11,0.00
2013-10-29,64,46,34,40,36,32,94,72,38,30.43,30.33,8,0,9,0.00
2013-10-30,59,48,36,52,44,34,93,85,73,30.38,30.20,8,0,8,0.00
2013-10-31,68,60,51,62,56,50,97,89,77,30.24,29.82,12,1,12,0.04
2013-11-1,70,64,54,64,59,52,97,85,62,29.82,29.58,25,3,25,0.22
2013-11-2,73,58,48,54,48,41,98,75,41,29.78,29.65,12,1,12,0.00
2013-11-11,54,51,50,37,34,31,60,53,41,30.17,29.99,14,3,14,0.00
2013-11-12,50,38,29,38,26,18,88,62,45,30.34,29.96,19,4,22,0.01
2013-11-13,45,33,26,22,17,12,70,54,29,30.41,30.31,18,3,18,0.00
2013-11-14,56,40,29,23,20,14,73,47,21,30.32,30.20,15,2,15,0.00
2013-11-15,58,41,29,35,29,22,88,66,38,30.28,30.18,8,0,8,0.00
2013-11-16,63,48,37,48,42,31,95,81,54,30.36,30.26,11,1,11,0.03
2013-11-17,65,56,46,60,53,44,94,90,81,30.28,29.78,13,1,13,0.00
2013-11-18,68,60,50,62,42,28,96,55,26,29.84,29.63,22,4,22,0.07
2013-11-19,51,44,33,30,26,22,67,50,41,30.37,29.83,23,6,23,0.00
2013-11-20,50,35,25,24,18,6,81,55,19,30.63,30.37,13,1,14,0.00
2013-11-21,56,40,23,42,31,18,85,70,50,30.63,30.40,8,1,8,0.00
2013-11-22,60,51,46,51,47,41,95,85,72,30.41,29.94,10,1,10,0.04
2013-11-23,52,42,30,49,28,11,93,58,40,30.09,29.94,25,6,25,0.00
2013-11-24,32,26,21,10,4,1,51,39,31,30.44,30.07,31,7,31,0.00
2013-11-25,39,29,19,18,13,6,74,53,39,30.53,30.36,12,2,12,0.00
2013-11-26,51,36,32,50,29,18,98,76,55,30.36,29.71,11,1,11,0.56
2013-11-27,63,46,33,62,43,21,98,89,59,29.83,29.40,27,5,27,1.41
2013-11-28,40,32,27,24,18,13,80,58,35,30.50,29.83,25,4,25,0.00
2013-11-29,44,32,23,26,22,18,90,68,41,30.75,30.49,13,1,13,0.00
2013-11-30,40,30,18,30,23,15,89,76,56,30.76,30.39,12,1,12,0.00
2013-12-1,53,40,28,35,31,25,93,71,48,30.39,30.04,8,0,8,0.00
2013-12-2,54,40,32,35,32,29,91,74,45,30.04,29.90,5,0,5,0.00
2013-12-3,58,42,32,40,35,30,93,77,46,30.03,29.90,8,0,8,0.00
2013-12-4,53,42,31,44,38,29,95,85,70,30.14,30.03,6,0,6,0.00
2013-12-5,58,49,46,57,48,44,98,95,90,30.13,29.95,5,0,11,0.02
2013-12-6,62,48,37,61,47,36,99,95,92,30.18,29.89,7,3,16,0.47
2013-12-7,43,36,28,36,30,21,97,79,58,30.53,30.11,13,3,18,0.06
2013-12-8,32,28,22,29,23,19,95,83,64,30.60,30.36,3,1,7,0.00
2013-12-9,36,34,30,35,33,29,97,96,95,30.36,30.01,3,1,8,0.37
2013-12-10,34,31,24,32,29,20,97,93,86,30.18,29.92,3,1,13,0.02
2013-12-11,33,27,20,22,19,17,91,72,57,30.37,30.18,8,2,13,0.09
2013-12-12,31,24,19,18,12,9,81,61,42,30.40,30.20,12,3,19,0.02
2013-12-13,39,28,18,21,16,8,78,60,44,30.35,30.18,7,2,16,0.00
2013-12-14,31,27,23,30,23,21,96,86,75,30.48,29.75,6,1,22,0.00
2013-12-15,41,34,29,35,29,22,97,83,63,29.88,29.56,12,3,17,0.50
2013-12-16,33,26,17,23,14,10,83,60,42,30.25,29.88,9,4,21,0.01
2013-12-17,30,25,21,28,22,16,93,88,80,30.24,29.96,4,1,9,0.00
2013-12-18,39,29,18,26,21,16,92,74,53,30.22,29.96,15,2,19,0.10
2013-12-19,47,33,20,31,26,18,93,76,49,30.22,30.05,4,1,8,0.00
2013-12-20,54,41,29,39,33,27,94,75,48,30.12,30.00,4,1,14,0.00
2013-12-21,66,52,38,56,47,37,98,86,64,30.03,29.92,7,2,11,0.00
2013-12-22,69,65,61,63,60,56,91,84,78,29.97,29.83,18,5,24,0.02
2013-12-23,61,55,41,60,52,35,98,92,79,30.19,29.92,10,2,28,0.35
2013-12-24,44,35,26,32,24,15,87,65,46,30.40,30.14,10,4,18,0.01
2013-12-25,30,25,18,18,12,9,71,59,46,30.55,30.40,8,2,15,0.00
2013-12-26,40,28,21,29,23,17,90,80,65,30.44,30.20,5,1,14,0.00
2013-12-27,44,31,22,24,22,19,90,70,43,30.39,30.30,6,1,16,0.00
2013-12-28,58,41,24,31,27,22,90,63,35,30.32,30.10,12,2,18,0.00
2013-12-29,45,41,36,44,36,29,97,85,69,30.10,29.46,6,2,16,0.87
2013-12-30,45,36,23,39,29,14,97,76,59,30.20,29.75,9,2,18,0.00
2013-12-31,33,26,19,28,17,13,85,67,59,30.33,30.09,10,2,20,0.00
2014-1-1,36,29,20,23,18,12,75,64,55,30.43,30.24,2,0,12,0.00
2014-1-2,33,27,18,25,22,16,92,82,68,30.24,29.68,8,2,15,0.00